Station Historical Data
Daily Summary for January 26, 2017 Units:  Metric    English   Both
« Previous Day
Next Day »
Daily Weekly Monthly Yearly Custom
  High: Low: Average:
Temperature: 7.4 °C 1.3 °C 2.7 °C
Dew Point: 4.6 °C -1.2 °C 0.7 °C
Humidity: 93% 81% 87%
Wind Speed: 38.6km/h 3.2km/h 13.7km/h
Wind Gust: 45.1km/h - -
Wind- - WSW
Pressure: 1003.9 hPa 995.5 hPa -
Precipitation: 0 mm    
Historical Graphs
 
 
Tabular Data for January 26, 2017
Time Temperature Dew Point Pressure Wind Wind Speed Wind Gust Humidity Rainfall Rate (Hourly)
00:04 7.4 °C 4.6 °C 996.5 hPa West 9.7 km/h 30.6 km/h 82% 0 mm
00:09 7.2 °C 4.5 °C 996.2 hPa WSW 16.1 km/h 30.6 km/h 83% 0 mm
00:14 7.1 °C 4.4 °C 996.5 hPa WSW 14.5 km/h 37 km/h 83% 0 mm
00:19 6.9 °C 4.3 °C 996.5 hPa SW 12.9 km/h 25.7 km/h 83% 0 mm
00:24 6.8 °C 4.2 °C 996.2 hPa WSW 14.5 km/h 29 km/h 83% 0 mm
00:29 6.8 °C 4.1 °C 996.2 hPa SSW 11.3 km/h 24.1 km/h 83% 0 mm
00:34 6.7 °C 3.9 °C 996.5 hPa SW 11.3 km/h 35.4 km/h 82% 0 mm
00:39 6.4 °C 3.8 °C 996.5 hPa WSW 16.1 km/h 35.4 km/h 83% 0 mm
00:44 6.2 °C 3.3 °C 996.5 hPa SW 16.1 km/h 37 km/h 82% 0 mm
00:49 5.9 °C 3.2 °C 996.5 hPa WSW 16.1 km/h 37 km/h 83% 0 mm
00:54 5.6 °C 2.9 °C 996.5 hPa SW 32.2 km/h 32.2 km/h 83% 0 mm
00:59 5.4 °C 2.9 °C 996.8 hPa West 30.6 km/h 35.4 km/h 84% 0 mm
01:04 5.2 °C 2.8 °C 996.5 hPa WSW 9.7 km/h 30.6 km/h 85% 0 mm
01:09 5 °C 2.7 °C 996.5 hPa WSW 16.1 km/h 30.6 km/h 85% 0 mm
01:14 4.8 °C 2.4 °C 996.8 hPa WSW 16.1 km/h 29 km/h 85% 0 mm
01:19 4.7 °C 2.3 °C 996.8 hPa WSW 17.7 km/h 32.2 km/h 85% 0 mm
01:24 4.6 °C 2.4 °C 996.8 hPa WSW 16.1 km/h 32.2 km/h 86% 0 mm
01:29 4.4 °C 2.3 °C 996.8 hPa WSW 19.3 km/h 30.6 km/h 86% 0 mm
01:34 4.4 °C 2.3 °C 996.8 hPa WSW 12.9 km/h 35.4 km/h 86% 0 mm
01:39 4.3 °C 2.2 °C 996.8 hPa SW 16.1 km/h 29 km/h 86% 0 mm
01:44 4.2 °C 2.1 °C 996.8 hPa WSW 16.1 km/h 30.6 km/h 86% 0 mm
01:49 4.2 °C 2.2 °C 996.5 hPa WSW 14.5 km/h 30.6 km/h 87% 0 mm
01:54 4.1 °C 2.2 °C 996.8 hPa WSW 14.5 km/h 29 km/h 87% 0 mm
01:59 4.1 °C 2.1 °C 996.8 hPa WSW 12.9 km/h 35.4 km/h 87% 0 mm
02:04 4 °C 2.1 °C 996.8 hPa SW 12.9 km/h 35.4 km/h 87% 0 mm
02:09 3.9 °C 2 °C 996.8 hPa SW 14.5 km/h 27.4 km/h 87% 0 mm
02:14 3.9 °C 1.9 °C 997.2 hPa SW 14.5 km/h 29 km/h 87% 0 mm
02:19 3.9 °C 1.9 °C 996.8 hPa West 12.9 km/h 25.7 km/h 87% 0 mm
02:24 3.9 °C 1.9 °C 997.2 hPa West 11.3 km/h 27.4 km/h 87% 0 mm
02:29 3.9 °C 1.9 °C 996.8 hPa West 16.1 km/h 32.2 km/h 87% 0 mm
02:34 3.9 °C 1.9 °C 996.8 hPa SW 14.5 km/h 35.4 km/h 87% 0 mm
02:39 3.9 °C 1.9 °C 996.8 hPa SW 4.8 km/h 27.4 km/h 87% 0 mm
02:44 3.8 °C 1.9 °C 996.5 hPa WSW 6.4 km/h 32.2 km/h 87% 0 mm
02:49 3.8 °C 1.9 °C 996.8 hPa WSW 12.9 km/h 32.2 km/h 87% 0 mm
02:54 3.9 °C 1.9 °C 996.5 hPa WSW 12.9 km/h 30.6 km/h 87% 0 mm
02:59 3.8 °C 1.9 °C 996.5 hPa WSW 12.9 km/h 25.7 km/h 87% 0 mm
03:04 3.8 °C 1.8 °C 996.5 hPa West 8 km/h 25.7 km/h 87% 0 mm
03:09 3.8 °C 1.8 °C 996.5 hPa WSW 11.3 km/h 25.7 km/h 87% 0 mm
03:14 3.7 °C 1.8 °C 996.5 hPa SW 12.9 km/h 29 km/h 87% 0 mm
03:19 3.7 °C 1.7 °C 996.5 hPa SW 12.9 km/h 27.4 km/h 87% 0 mm
03:24 3.6 °C 1.7 °C 996.5 hPa West 9.7 km/h 24.1 km/h 87% 0 mm
03:29 3.6 °C 1.7 °C 996.5 hPa SW 11.3 km/h 29 km/h 87% 0 mm
03:34 3.6 °C 1.6 °C 996.5 hPa SW 14.5 km/h 27.4 km/h 87% 0 mm
03:39 3.5 °C 1.6 °C 996.5 hPa WSW 11.3 km/h 29 km/h 87% 0 mm
03:44 3.5 °C 1.6 °C 996.5 hPa WSW 14.5 km/h 30.6 km/h 87% 0 mm
03:49 3.4 °C 1.5 °C 996.2 hPa WSW 11.3 km/h 25.7 km/h 87% 0 mm
03:54 3.4 °C 1.5 °C 996.5 hPa SW 14.5 km/h 25.7 km/h 87% 0 mm
03:59 3.4 °C 1.4 °C 996.2 hPa SW 12.9 km/h 25.7 km/h 87% 0 mm
04:04 3.3 °C 1.6 °C 996.2 hPa SW 11.3 km/h 20.9 km/h 88% 0 mm
04:09 3.3 °C 1.6 °C 996.2 hPa SW 12.9 km/h 22.5 km/h 88% 0 mm
04:14 3.3 °C 1.6 °C 996.2 hPa SW 12.9 km/h 27.4 km/h 88% 0 mm
04:19 3.3 °C 1.5 °C 996.2 hPa WSW 22.5 km/h 29 km/h 88% 0 mm
04:24 3.3 °C 1.5 °C 996.2 hPa SW 6.4 km/h 22.5 km/h 88% 0 mm
04:29 3.2 °C 1.4 °C 996.2 hPa SW 12.9 km/h 27.4 km/h 88% 0 mm
04:34 3.2 °C 1.4 °C 996.2 hPa WSW 14.5 km/h 24.1 km/h 88% 0 mm
04:39 3.3 °C 1.5 °C 996.2 hPa SW 12.9 km/h 24.1 km/h 88% 0 mm
04:49 3.2 °C 1.4 °C 996.2 hPa West 9.7 km/h 24.1 km/h 88% 0 mm
04:54 3.2 °C 1.4 °C 996.2 hPa SW 6.4 km/h 20.9 km/h 88% 0 mm
04:59 3.2 °C 1.4 °C 996.2 hPa SW 12.9 km/h 25.7 km/h 88% 0 mm
05:04 3.2 °C 1.4 °C 996.2 hPa SW 12.9 km/h 25.7 km/h 88% 0 mm
05:09 3.2 °C 1.4 °C 996.2 hPa SW 9.7 km/h 29 km/h 88% 0 mm
05:14 3.2 °C 1.4 °C 996.2 hPa SW 12.9 km/h 29 km/h 88% 0 mm
05:19 3.1 °C 1.3 °C 996.2 hPa SW 22.5 km/h 30.6 km/h 88% 0 mm
05:24 3.1 °C 1.3 °C 996.2 hPa WSW 14.5 km/h 29 km/h 88% 0 mm
05:29 3.1 °C 1.3 °C 996.2 hPa SW 14.5 km/h 30.6 km/h 88% 0 mm
05:34 3.1 °C 1.3 °C 996.2 hPa SW 14.5 km/h 30.6 km/h 88% 0 mm
05:39 3.1 °C 1.1 °C 996.2 hPa SW 20.9 km/h 22.5 km/h 87% 0 mm
05:44 3 °C 1.1 °C 996.2 hPa WSW 22.5 km/h 27.4 km/h 87% 0 mm
05:49 3.1 °C 1.1 °C 996.2 hPa WSW 6.4 km/h 27.4 km/h 87% 0 mm
05:54 3 °C 1.1 °C 996.5 hPa SW 27.4 km/h 29 km/h 87% 0 mm
05:59 3 °C 1.1 °C 996.2 hPa WSW 14.5 km/h 27.4 km/h 87% 0 mm
06:04 3 °C 1.1 °C 996.2 hPa WSW 12.9 km/h 27.4 km/h 87% 0 mm
06:09 2.9 °C 0.8 °C 996.2 hPa SW 11.3 km/h 24.1 km/h 86% 0 mm
06:14 2.9 °C 0.8 °C 996.5 hPa West 17.7 km/h 29 km/h 86% 0 mm
06:19 2.9 °C 0.8 °C 996.5 hPa SW 22.5 km/h 27.4 km/h 86% 0 mm
06:24 2.9 °C 0.8 °C 996.5 hPa West 8 km/h 24.1 km/h 86% 0 mm
06:29 2.9 °C 0.7 °C 996.5 hPa WSW 16.1 km/h 29 km/h 85% 0 mm
06:34 3 °C 0.7 °C 996.5 hPa SW 14.5 km/h 29 km/h 85% 0 mm
06:39 3 °C 0.6 °C 996.5 hPa WSW 16.1 km/h 27.4 km/h 84% 0 mm
06:44 3.1 °C 0.6 °C 996.5 hPa WSW 17.7 km/h 35.4 km/h 84% 0 mm
06:49 3 °C 0.6 °C 996.5 hPa WSW 14.5 km/h 35.4 km/h 84% 0 mm
06:54 3 °C 0.6 °C 996.5 hPa WSW 12.9 km/h 30.6 km/h 84% 0 mm
06:59 3 °C 0.7 °C 996.5 hPa SW 14.5 km/h 29 km/h 85% 0 mm
07:04 3 °C 0.7 °C 996.5 hPa SSW 14.5 km/h 25.7 km/h 85% 0 mm
07:09 3 °C 0.7 °C 996.5 hPa WSW 14.5 km/h 29 km/h 85% 0 mm
07:14 3 °C 0.7 °C 996.5 hPa WSW 14.5 km/h 24.1 km/h 85% 0 mm
07:19 3 °C 0.7 °C 996.5 hPa WSW 14.5 km/h 40.2 km/h 85% 0 mm
07:24 3 °C 0.6 °C 996.5 hPa WSW 12.9 km/h 32.2 km/h 84% 0 mm
07:29 3 °C 0.6 °C 996.5 hPa West 14.5 km/h 30.6 km/h 84% 0 mm
07:34 3 °C 0.4 °C 996.5 hPa West 11.3 km/h 38.6 km/h 83% 0 mm
07:39 3 °C 0.4 °C 996.2 hPa WSW 17.7 km/h 38.6 km/h 83% 0 mm
07:44 3 °C 0.4 °C 996.2 hPa WSW 16.1 km/h 32.2 km/h 83% 0 mm
07:49 3 °C 0.4 °C 996.2 hPa WSW 16.1 km/h 32.2 km/h 83% 0 mm
07:54 3 °C 0.2 °C 996.2 hPa WSW 16.1 km/h 32.2 km/h 82% 0 mm
07:59 2.9 °C 0.2 °C 996.2 hPa WSW 14.5 km/h 25.7 km/h 82% 0 mm
08:04 3 °C 0.2 °C 996.2 hPa WSW 16.1 km/h 33.8 km/h 82% 0 mm
08:09 2.9 °C 0.2 °C 996.2 hPa SW 9.7 km/h 33.8 km/h 82% 0 mm
08:14 2.9 °C 0.1 °C 996.2 hPa WSW 14.5 km/h 32.2 km/h 82% 0 mm
08:19 2.8 °C 0.2 °C 996.2 hPa South 17.7 km/h 32.2 km/h 83% 0 mm
08:24 2.8 °C 0.2 °C 996.2 hPa WSW 20.9 km/h 40.2 km/h 83% 0 mm
08:29 2.7 °C 0.3 °C 996.2 hPa SW 25.7 km/h 35.4 km/h 84% 0 mm
08:34 2.6 °C 0.3 °C 996.2 hPa West 20.9 km/h 35.4 km/h 85% 0 mm
08:39 2.6 °C 0.3 °C 996.2 hPa SW 12.9 km/h 33.8 km/h 85% 0 mm
08:44 2.5 °C 0.4 °C 996.2 hPa SW 17.7 km/h 33.8 km/h 86% 0 mm
08:49 2.4 °C 0.3 °C 996.2 hPa WSW 17.7 km/h 35.4 km/h 86% 0 mm
08:54 2.4 °C 0.3 °C 996.2 hPa WSW 17.7 km/h 37 km/h 86% 0 mm
08:59 2.4 °C 0.4 °C 996.2 hPa WSW 17.7 km/h 37 km/h 87% 0 mm
09:04 2.3 °C 0.4 °C 996.2 hPa WSW 16.1 km/h 30.6 km/h 87% 0 mm
09:09 2.3 °C 0.3 °C 996.2 hPa WSW 9.7 km/h 32.2 km/h 87% 0 mm
09:14 2.2 °C 0.4 °C 996.2 hPa WSW 16.1 km/h 32.2 km/h 88% 0 mm
09:19 2.2 °C 0.4 °C 996.2 hPa WSW 14.5 km/h 27.4 km/h 88% 0 mm
09:24 2.3 °C 0.5 °C 996.2 hPa SW 12.9 km/h 35.4 km/h 88% 0 mm
09:29 2.2 °C 0.4 °C 996.2 hPa WNW 12.9 km/h 33.8 km/h 88% 0 mm
09:34 2.2 °C 0.4 °C 996.2 hPa SW 16.1 km/h 30.6 km/h 88% 0 mm
09:39 2.2 °C 0.6 °C 996.2 hPa West 16.1 km/h 33.8 km/h 89% 0 mm
09:44 2.2 °C 0.6 °C 996.5 hPa WSW 12.9 km/h 33.8 km/h 89% 0 mm
09:49 2.1 °C 0.4 °C 996.2 hPa WSW 17.7 km/h 33.8 km/h 89% 0 mm
09:54 2 °C 0.4 °C 996.2 hPa WSW 19.3 km/h 33.8 km/h 89% 0 mm
09:59 2 °C 0.6 °C 996.5 hPa WSW 17.7 km/h 30.6 km/h 90% 0 mm
10:04 2 °C 0.6 °C 996.2 hPa WSW 16.1 km/h 30.6 km/h 90% 0 mm
10:09 2 °C 0.6 °C 996.5 hPa WSW 17.7 km/h 30.6 km/h 90% 0 mm
10:14 2 °C 0.6 °C 996.5 hPa West 11.3 km/h 32.2 km/h 90% 0 mm
10:19 1.9 °C 0.4 °C 996.5 hPa WSW 17.7 km/h 35.4 km/h 90% 0 mm
10:24 1.9 °C 0.4 °C 996.5 hPa WSW 16.1 km/h 35.4 km/h 90% 0 mm
10:29 1.9 °C 0.4 °C 996.5 hPa SW 17.7 km/h 25.7 km/h 90% 0 mm
10:34 1.8 °C 0.4 °C 996.5 hPa WSW 17.7 km/h 37 km/h 90% 0 mm
10:39 1.8 °C 0.4 °C 996.5 hPa West 20.9 km/h 38.6 km/h 90% 0.25 mm
10:44 1.8 °C 0.5 °C 996.5 hPa West 9.7 km/h 32.2 km/h 91% 0.25 mm
10:49 1.8 °C 0.4 °C 996.5 hPa WSW 12.9 km/h 32.2 km/h 91% 0.25 mm
10:54 1.8 °C 0.5 °C 996.5 hPa WSW 16.1 km/h 32.2 km/h 91% 0.25 mm
10:59 1.8 °C 0.5 °C 996.5 hPa WSW 14.5 km/h 29 km/h 91% 0.25 mm
11:04 1.8 °C 0.5 °C 996.5 hPa WSW 16.1 km/h 29 km/h 91% 0.25 mm
11:09 1.8 °C 0.4 °C 996.5 hPa WSW 16.1 km/h 33.8 km/h 91% 0.25 mm
11:14 1.8 °C 0.4 °C 996.5 hPa WSW 16.1 km/h 33.8 km/h 91% 0.25 mm
11:19 1.7 °C 0.4 °C 996.2 hPa WSW 14.5 km/h 30.6 km/h 91% 0.25 mm
11:24 1.7 °C 0.4 °C 996.2 hPa WSW 12.9 km/h 35.4 km/h 91% 0.25 mm
11:29 1.7 °C 0.4 °C 996.2 hPa SW 8 km/h 40.2 km/h 91% 0.51 mm
11:34 1.8 °C 0.6 °C 996.2 hPa WSW 12.9 km/h 29 km/h 92% 0.51 mm
11:39 1.8 °C 0.4 °C 996.2 hPa WSW 17.7 km/h 32.2 km/h 91% 0.25 mm
11:44 1.8 °C 0.6 °C 996.2 hPa WSW 16.1 km/h 32.2 km/h 92% 0.25 mm
11:49 1.7 °C 0.3 °C 995.8 hPa WNW 11.3 km/h 30.6 km/h 91% 0.25 mm
11:54 1.7 °C 0.5 °C 995.8 hPa South 29 km/h 37 km/h 92% 0.25 mm
11:59 1.6 °C 0.4 °C 995.8 hPa WSW 16.1 km/h 37 km/h 92% 0.51 mm
12:04 1.7 °C 0.5 °C 995.8 hPa WSW 16.1 km/h 35.4 km/h 92% 0.51 mm
12:09 1.7 °C 0.6 °C 995.8 hPa SW 16.1 km/h 27.4 km/h 92% 0.51 mm
12:14 1.8 °C 0.6 °C 995.8 hPa West 14.5 km/h 38.6 km/h 92% 0.51 mm
12:19 1.8 °C 0.6 °C 995.8 hPa WSW 19.3 km/h 32.2 km/h 92% 0.76 mm
12:24 1.8 °C 0.6 °C 995.5 hPa SW 25.7 km/h 37 km/h 92% 0.76 mm
12:29 1.8 °C 0.6 °C 995.8 hPa WSW 17.7 km/h 38.6 km/h 92% 0.51 mm
12:34 1.8 °C 0.6 °C 995.8 hPa WSW 16.1 km/h 38.6 km/h 92% 0.51 mm
12:39 1.7 °C 0.6 °C 995.8 hPa WSW 16.1 km/h 32.2 km/h 92% 0.51 mm
12:44 1.7 °C 0.6 °C 995.5 hPa WSW 17.7 km/h 35.4 km/h 92% 0.76 mm
12:49 1.8 °C 0.6 °C 995.5 hPa SW 38.6 km/h 38.6 km/h 92% 0.76 mm
12:54 1.8 °C 0.7 °C 995.5 hPa SW 11.3 km/h 38.6 km/h 92% 0.76 mm
12:59 1.8 °C 0.7 °C 995.5 hPa SW 12.9 km/h 45.1 km/h 92% 0.51 mm
13:04 1.9 °C 0.7 °C 995.5 hPa WSW 14.5 km/h 45.1 km/h 92% 0.51 mm
13:09 1.8 °C 0.6 °C 995.8 hPa WSW 16.1 km/h 40.2 km/h 92% 0.51 mm
13:14 1.8 °C 0.6 °C 995.5 hPa WSW 29 km/h 33.8 km/h 92% 0.51 mm
13:19 1.7 °C 0.6 °C 995.5 hPa SW 8 km/h 27.4 km/h 92% 0.25 mm
13:24 1.8 °C 0.7 °C 995.8 hPa WSW 17.7 km/h 27.4 km/h 92% 0.25 mm
13:29 1.8 °C 0.7 °C 995.8 hPa WSW 9.7 km/h 27.4 km/h 92% 0.51 mm
13:34 1.9 °C 0.7 °C 995.8 hPa WSW 14.5 km/h 32.2 km/h 92% 0.51 mm
13:39 1.8 °C 0.7 °C 995.8 hPa WSW 16.1 km/h 33.8 km/h 92% 0.51 mm
13:44 1.8 °C 0.7 °C 995.8 hPa WSW 16.1 km/h 33.8 km/h 92% 0.25 mm
13:49 1.8 °C 0.7 °C 995.8 hPa West 14.5 km/h 30.6 km/h 92% 0.25 mm
13:54 1.9 °C 0.7 °C 995.8 hPa SW 14.5 km/h 30.6 km/h 92% 0.51 mm
13:59 1.8 °C 0.7 °C 996.2 hPa SW 6.4 km/h 29 km/h 92% 0.51 mm
14:04 1.9 °C 0.7 °C 996.2 hPa WSW 12.9 km/h 29 km/h 92% 0.51 mm
14:09 1.9 °C 0.7 °C 996.2 hPa WSW 11.3 km/h 25.7 km/h 92% 0.51 mm
14:14 1.9 °C 0.9 °C 996.2 hPa WNW 11.3 km/h 27.4 km/h 93% 0.51 mm
14:19 1.9 °C 0.9 °C 996.2 hPa WSW 9.7 km/h 25.7 km/h 93% 0.51 mm
14:24 1.9 °C 0.9 °C 996.2 hPa West 19.3 km/h 27.4 km/h 93% 0.51 mm
14:29 2 °C 1 °C 996.5 hPa WSW 20.9 km/h 24.1 km/h 93% 0.25 mm
14:34 2.1 °C 1.1 °C 996.5 hPa WSW 11.3 km/h 24.1 km/h 93% 0.25 mm
14:39 2.2 °C 1.2 °C 996.5 hPa WSW 11.3 km/h 24.1 km/h 93% 0.25 mm
14:44 2.3 °C 1.3 °C 996.5 hPa WSW 9.7 km/h 24.1 km/h 93% 0.51 mm
14:49 2.3 °C 1.3 °C 996.8 hPa WSW 8 km/h 20.9 km/h 93% 0.51 mm
14:54 2.4 °C 1.4 °C 996.8 hPa West 8 km/h 20.9 km/h 93% 0.25 mm
14:59 2.5 °C 1.5 °C 997.2 hPa WSW 4.8 km/h 12.9 km/h 93% 0.25 mm
15:04 2.6 °C 1.4 °C 997.2 hPa WNW 12.9 km/h 20.9 km/h 92% 0.25 mm
15:09 2.6 °C 1.4 °C 997.5 hPa WNW 11.3 km/h 22.5 km/h 92% 0.25 mm
15:14 2.6 °C 1.4 °C 997.5 hPa West 9.7 km/h 22.5 km/h 92% 0.25 mm
15:19 2.6 °C 1.4 °C 997.9 hPa WNW 9.7 km/h 17.7 km/h 92% 0.51 mm
15:24 2.6 °C 1.4 °C 997.9 hPa WNW 19.3 km/h 20.9 km/h 92% 0.51 mm
15:34 2.3 °C 1 °C 998.2 hPa NW 6.4 km/h 17.7 km/h 91% 0.76 mm
15:39 2.3 °C 0.9 °C 998.2 hPa WNW 9.7 km/h 17.7 km/h 91% 1.02 mm
15:44 2.2 °C 0.8 °C 998.2 hPa WNW 8 km/h 14.5 km/h 91% 0.76 mm
15:49 2.1 °C 0.8 °C 998.5 hPa WNW 9.7 km/h 27.4 km/h 91% 1.02 mm
15:54 2.1 °C 0.6 °C 998.5 hPa West 12.9 km/h 27.4 km/h 90% 1.02 mm
15:59 2.2 °C 0.6 °C 998.9 hPa West 16.1 km/h 20.9 km/h 89% 1.02 mm
16:04 2.3 °C 0.5 °C 998.9 hPa West 4.8 km/h 24.1 km/h 88% 1.02 mm
16:09 2.3 °C 0.5 °C 998.9 hPa West 11.3 km/h 24.1 km/h 88% 1.02 mm
16:19 2.3 °C 0.2 °C 999.2 hPa WNW 16.1 km/h 24.1 km/h 86% 0.76 mm
16:24 2.4 °C 0.3 °C 999.5 hPa West 14.5 km/h 19.3 km/h 86% 0.76 mm
16:29 2.3 °C 0.1 °C 999.5 hPa WNW 17.7 km/h 25.7 km/h 85% 0.51 mm
16:34 2.3 °C -0.1 °C 999.5 hPa NNW 12.9 km/h 29 km/h 84% 0.51 mm
16:39 2.3 °C -0.3 °C 999.9 hPa WNW 14.5 km/h 29 km/h 83% 0.25 mm
16:49 2.3 °C -0.2 °C 999.9 hPa WNW 8 km/h 19.3 km/h 84% 0 mm
16:54 2.2 °C -0.2 °C 1000.2 hPa WNW 11.3 km/h 29 km/h 84% 0 mm
16:59 2.2 °C -0.1 °C 1000.2 hPa WNW 11.3 km/h 29 km/h 85% 0 mm
17:09 2.2 °C -0.1 °C 1000.2 hPa West 11.3 km/h 22.5 km/h 85% 0 mm
17:14 2.1 °C -0.2 °C 1000.2 hPa West 8 km/h 17.7 km/h 85% 0 mm
17:19 2.1 °C -0.2 °C 1000.6 hPa West 8 km/h 14.5 km/h 85% 0 mm
17:24 2.1 °C -0.2 °C 1000.6 hPa West 4.8 km/h 12.9 km/h 85% 0 mm
17:29 2 °C -0.1 °C 1000.6 hPa West 4.8 km/h 9.7 km/h 86% 0 mm
17:34 2 °C -0.1 °C 1000.6 hPa WSW 3.2 km/h 14.5 km/h 86% 0 mm
17:39 2 °C -0.1 °C 1000.6 hPa WSW 6.4 km/h 12.9 km/h 86% 0 mm
17:49 2.1 °C 0.1 °C 1000.9 hPa WSW 6.4 km/h 12.9 km/h 87% 0 mm
17:54 2.1 °C 0.1 °C 1000.9 hPa WSW 6.4 km/h 12.9 km/h 87% 0 mm
17:59 2.1 °C 0.1 °C 1000.9 hPa WSW 6.4 km/h 11.3 km/h 87% 0 mm
18:04 2.1 °C 0.3 °C 1000.9 hPa WSW 6.4 km/h 14.5 km/h 88% 0 mm
18:09 2.1 °C 0.3 °C 1000.9 hPa WSW 4.8 km/h 14.5 km/h 88% 0 mm
18:19 2.2 °C 0.4 °C 1001.2 hPa WSW 8 km/h 20.9 km/h 88% 0 mm
18:24 2.2 °C 0.4 °C 1001.2 hPa WSW 11.3 km/h 17.7 km/h 88% 0 mm
18:29 2.3 °C 0.3 °C 1001.2 hPa SW 17.7 km/h 19.3 km/h 87% 0 mm
18:34 2.3 °C 0.4 °C 1001.2 hPa West 11.3 km/h 29 km/h 87% 0 mm
18:59 2.4 °C 0.3 °C 1001.6 hPa West 11.3 km/h 27.4 km/h 86% 0 mm
19:04 2.4 °C 0.1 °C 1001.9 hPa West 9.7 km/h 19.3 km/h 85% 0 mm
19:09 2.3 °C 0.1 °C 1001.9 hPa West 9.7 km/h 20.9 km/h 85% 0 mm
19:14 2.3 °C 0 °C 1001.9 hPa West 11.3 km/h 27.4 km/h 85% 0 mm
19:19 2.3 °C -0.2 °C 1001.9 hPa West 27.4 km/h 27.4 km/h 84% 0 mm
19:24 2.3 °C -0.2 °C 1001.9 hPa NW 12.9 km/h 27.4 km/h 84% 0 mm
19:29 2.2 °C -0.2 °C 1002.3 hPa West 8 km/h 27.4 km/h 84% 0 mm
19:34 2.2 °C -0.3 °C 1002.3 hPa WSW 6.4 km/h 19.3 km/h 84% 0 mm
19:39 2.1 °C -0.4 °C 1002.3 hPa WSW 20.9 km/h 24.1 km/h 84% 0 mm
19:44 1.9 °C -0.7 °C 1002.3 hPa West 16.1 km/h 19.3 km/h 83% 0 mm
19:49 1.9 °C -0.7 °C 1002.3 hPa NNW 6.4 km/h 20.9 km/h 83% 0 mm
19:54 1.8 °C -0.8 °C 1002.3 hPa West 11.3 km/h 24.1 km/h 83% 0 mm
19:59 1.7 °C -0.9 °C 1002.3 hPa West 11.3 km/h 25.7 km/h 83% 0 mm
20:05 1.7 °C -0.9 °C 1002.3 hPa West 11.3 km/h 25.7 km/h 83% 0 mm
20:14 1.6 °C -0.8 °C 1002.6 hPa West 9.7 km/h 22.5 km/h 84% 0 mm
20:19 1.5 °C -0.9 °C 1002.6 hPa West 11.3 km/h 22.5 km/h 84% 0 mm
20:24 1.4 °C -0.9 °C 1002.6 hPa WSW 17.7 km/h 20.9 km/h 84% 0 mm
20:29 1.4 °C -1.1 °C 1002.6 hPa WSW 11.3 km/h 22.5 km/h 83% 0 mm
20:34 1.4 °C -1.1 °C 1002.6 hPa WNW 19.3 km/h 24.1 km/h 83% 0 mm
20:39 1.3 °C -1.2 °C 1002.6 hPa WSW 11.3 km/h 19.3 km/h 83% 0 mm
20:44 1.3 °C -1.2 °C 1002.6 hPa West 12.9 km/h 24.1 km/h 83% 0 mm
20:49 1.4 °C -1.2 °C 1002.6 hPa West 14.5 km/h 20.9 km/h 83% 0 mm
20:54 1.3 °C -1.2 °C 1002.6 hPa WSW 12.9 km/h 25.7 km/h 83% 0 mm
21:04 1.4 °C -1 °C 1002.6 hPa WSW 12.9 km/h 38.6 km/h 84% 0 mm
21:09 1.3 °C -1.1 °C 1002.9 hPa WSW 11.3 km/h 38.6 km/h 84% 0 mm
21:14 1.3 °C -0.9 °C 1002.9 hPa WSW 9.7 km/h 19.3 km/h 85% 0 mm
21:19 1.3 °C -0.9 °C 1002.9 hPa WSW 11.3 km/h 22.5 km/h 85% 0 mm
21:24 1.4 °C -0.8 °C 1002.9 hPa West 16.1 km/h 29 km/h 85% 0 mm
21:29 1.5 °C -0.7 °C 1002.9 hPa WSW 12.9 km/h 29 km/h 85% 0 mm
21:34 1.6 °C -0.7 °C 1002.9 hPa WSW 12.9 km/h 29 km/h 85% 0 mm
21:39 1.7 °C -0.4 °C 1002.9 hPa WSW 9.7 km/h 27.4 km/h 86% 0 mm
21:44 1.7 °C -0.4 °C 1003.3 hPa West 9.7 km/h 20.9 km/h 86% 0 mm
21:49 1.7 °C -0.4 °C 1003.3 hPa WSW 9.7 km/h 29 km/h 86% 0 mm
21:54 1.7 °C -0.6 °C 1003.3 hPa West 6.4 km/h 22.5 km/h 85% 0 mm
21:59 1.7 °C -0.6 °C 1003.3 hPa WSW 4.8 km/h 22.5 km/h 85% 0 mm
22:09 1.8 °C -0.5 °C 1003.3 hPa West 22.5 km/h 29 km/h 85% 0 mm
22:19 1.8 °C -0.4 °C 1003.3 hPa West 12.9 km/h 27.4 km/h 85% 0 mm
22:24 1.9 °C -0.4 °C 1003.3 hPa SW 16.1 km/h 27.4 km/h 85% 0 mm
22:29 1.9 °C -0.6 °C 1003.6 hPa WSW 17.7 km/h 25.7 km/h 84% 0 mm
22:34 1.9 °C -0.5 °C 1003.6 hPa West 12.9 km/h 25.7 km/h 84% 0 mm
22:39 1.9 °C -0.7 °C 1003.6 hPa West 11.3 km/h 25.7 km/h 83% 0 mm
22:44 1.9 °C -0.7 °C 1003.6 hPa WSW 9.7 km/h 22.5 km/h 83% 0 mm
22:49 1.9 °C -0.7 °C 1003.6 hPa West 11.3 km/h 22.5 km/h 83% 0 mm
22:59 1.9 °C -0.7 °C 1003.6 hPa SW 9.7 km/h 17.7 km/h 83% 0 mm
23:04 1.9 °C -0.8 °C 1003.6 hPa West 12.9 km/h 33.8 km/h 82% 0 mm
23:09 1.9 °C -0.8 °C 1003.6 hPa WSW 14.5 km/h 33.8 km/h 82% 0 mm
23:14 1.9 °C -0.8 °C 1003.6 hPa WSW 12.9 km/h 27.4 km/h 82% 0 mm
23:19 1.9 °C -0.8 °C 1003.6 hPa WSW 22.5 km/h 30.6 km/h 82% 0 mm
23:24 1.9 °C -0.8 °C 1003.9 hPa WSW 12.9 km/h 32.2 km/h 82% 0 mm
23:29 1.9 °C -1.1 °C 1003.6 hPa West 12.9 km/h 32.2 km/h 81% 0 mm
23:34 1.9 °C -1.1 °C 1003.6 hPa West 12.9 km/h 27.4 km/h 81% 0 mm
23:39 1.9 °C -1.1 °C 1003.6 hPa West 14.5 km/h 33.8 km/h 81% 0 mm
23:44 1.8 °C -0.9 °C 1003.6 hPa West 12.9 km/h 33.8 km/h 82% 0 mm
23:54 1.8 °C -0.9 °C 1003.6 hPa WNW 4.8 km/h 22.5 km/h 82% 0 mm
23:59 1.7 °C -1.2 °C 1003.6 hPa WSW 9.7 km/h 29 km/h 81% 0 mm
Buffalo, New York, USA
Compliments of Weather Underground - 2.25 mb